This is the latest recevied weather packets stored in our database for station/object HP1MRA-15. If no packets are shown the sender has not sent any weather packets the latest 10 day(s).
| Time | Temp. | Humidity | Pressure | Rain* | Wind** | Luminosity | Snow |
|---|---|---|---|---|---|---|---|
| 1788214159 | 28.33° C | 74% | 1002.9 hPa | 26.16 mm | - | - | - |
| 1788213853 | 28.33° C | 76% | 1003 hPa | 26.16 mm | - | - | - |
| 1788213553 | 28.89° C | 73% | 1002.8 hPa | 25.65 mm | - | - | - |
| 1788213251 | 28.89° C | 73% | 1002.8 hPa | 23.88 mm | - | - | - |
| 1788212952 | 28.89° C | 73% | 1002.8 hPa | 20.07 mm | - | - | - |
| 1788212653 | 29.44° C | 75% | 1002.8 hPa | 14.48 mm | - | - | - |
| 1788212353 | - | - | 1002.6 hPa | 11.94 mm | - | - | - |
| 1788212351 | 30° C | 73% | 1002.6 hPa | 11.94 mm | - | - | - |
| 1788212052 | 30° C | 73% | 1002.2 hPa | 8.64 mm | - | - | - |
| 1788211753 | 30.56° C | 73% | 1002.3 hPa | 5.33 mm | - | - | - |
| 1788211453 | 30.56° C | 73% | 1002.4 hPa | 0.76 mm | - | - | - |
| 1788211451 | 30.56° C | 73% | 1002.3 hPa | 0.76 mm | - | - | - |
| 1788211152 | 31.11° C | 73% | 1002.4 hPa | 0 mm | - | - | - |
| 1788210853 | 31.67° C | 73% | 1002.2 hPa | 0 mm | - | - | - |
| 1788210552 | 32.22° C | 72% | 1002.1 hPa | 0 mm | - | - | - |
| 1788210251 | 32.22° C | 72% | 1001.8 hPa | 0 mm | - | - | - |
| 1788209953 | 32.78° C | 72% | 1001.8 hPa | 0 mm | - | - | - |
| 1788209652 | 32.78° C | 72% | 1001.9 hPa | 0 mm | - | - | - |
| 1788209651 | 32.78° C | 72% | 1001.9 hPa | 0 mm | - | - | - |
| 1788209352 | 32.78° C | 72% | 1001.7 hPa | 0 mm | - | - | - |
| 1788209053 | 33.33° C | 72% | 1001.8 hPa | 0 mm | - | - | - |
| 1788208752 | 33.33° C | 72% | 1001.7 hPa | 0 mm | - | - | - |
| 1788208752 | 33.33° C | 72% | 1001.7 hPa | 0 mm | - | - | - |
| 1788208452 | 33.33° C | 72% | 1001.8 hPa | 0 mm | - | - | - |
| 1788208153 | 33.33° C | 72% | 1001.9 hPa | 0 mm | - | - | - |
* Rain latest hour (hover to see other rain measurements)
** Current wind speed in m/s (hover to see current wind gust speed)